Weather Roundup
Issued by NWS Springfield, MO

Home | Current Version | Previous Version | Text Only | Print | Product List | Glossary On
Versions: 1 2 3 4 5 6 7 8 9 10 11 12 13 14 15 16 17 18 19 20 21 22 23 24 25 26 27 28 29 30 31 32 33 34 35 36 37 38 39 40 41 42 43 44 45 46 47 48 49 50
000
NZUS99 KSGF 290607
HRRSGF

HOURLY WEATHER
NATIONAL WEATHER SERVICE SPRINGFIELD MO
100 AM CDT THU JUN 29 2017

......SGF CWA......

CITY           SKY/WX    TMP DP  RH WIND       PRES   REMARKS
SPRINGFIELD    PTCLDY    74  66  76 S13       29.90R
6HR MIN TEMP:  74; 6HR MAX TEMP:  83;

JOPLIN         PTCLDY    77  68  73 S12       29.87S
6HR MIN TEMP:  77; 6HR MAX TEMP:  86;

WEST PLAINS    CLEAR     74  64  71 S9        29.97S
6HR MIN TEMP:  74; 6HR MAX TEMP:  82;

ROLLA          PTCLDY    72  65  78 S12       29.92R
6HR MIN TEMP:  72; 6HR MAX TEMP:  83;

OSAGE BEACH    CLEAR     74  65  73 S8        29.90F
BRANSON        CLEAR     72  66  83 S8        29.94F

......SURROUNDING SGF CWA......

CITY           SKY/WX    TMP DP  RH WIND       PRES   REMARKS
CHANUTE        CLEAR     78  67  68 S14       29.82R
PARSONS        CLEAR     77  67  71 S7        29.83F
COFFEYVILLE    HAZE      77  68  73 S10       29.82F VSB 1/2
EMPORIA        CLEAR     77  67  71 S16       29.78R
GROVE OK       PTCLDY    73  68  83 SE5       29.88S
ROGERS AR      CLEAR     72  65  78 SE8       29.92F
SILOAM SPRINGS CLEAR     73  64  73 S12       29.91S
HARRISON AR    CLEAR     69  66  90 SE8       29.95S
NEAR YELLVILLE CLEAR     73  63  68 S3        29.91F

......KANSAS AND MISSOURI......

CITY           SKY/WX    TMP DP  RH WIND       PRES   REMARKS
KANSAS CTY INT PTCLDY    79  68  69 S17G26    29.77S
DOWNTOWN KC    CLEAR     82  68  62 SW15G26   29.77R
COLUMBIA       CLOUDY    76  65  68 E5        29.92R
SEDALIA        CLOUDY    76  67  73 S14       29.87R
ST JOSEPH      CLOUDY    75  67  76 SE9       29.79R
ST LOUIS       CLOUDY    79  64  60 S9        29.93R
SPIRIT OF STL  CLOUDY    76  66  71 S3        29.91S
KIRKSVILLE     CLOUDY    65  64  97 S17G25    29.87R
WICHITA        PTCLDY    79  66  64 S18       29.76S
TOPEKA         MOCLDY    81  69  67 S16G30    29.75R
OLATHE         CLEAR     78  68  71 S16G24    29.80R

......TENNESSEE......

CITY           SKY/WX    TMP DP  RH WIND       PRES   REMARKS
MEMPHIS        CLEAR     77  67  71 S12       29.98S
NASHVILLE      CLEAR     72  62  71 SE7       30.06R

......ARKANSAS.......

CITY           SKY/WX    TMP DP  RH WIND       PRES   REMARKS
FAYETTEVILLE   CLEAR     73  66  78 S6        29.92S
FT SMITH       CLEAR     77  69  76 SE3       29.89S
LITTLE ROCK    CLEAR     73  70  90 S3        29.94F

......OKLAHOMA.......

CITY           SKY/WX    TMP DP  RH WIND       PRES   REMARKS
TULSA          CLEAR     80  69  69 S16       29.81F
PONCA CITY     CLEAR     80  65  59 S12G25    29.78F
MCALESTER      MOCLDY    79  68  69 SE7       29.87F
OKLAHOMA CITY  CLEAR     76  66  71 S14G24    29.83S

......IOWA............

CITY           SKY/WX    TMP DP  RH WIND       PRES   REMARKS
DES MOINES     CLOUDY    69  66  90 S6        29.70F
QUAD CITIES    MOCLDY    78  62  57 SW10      29.71R

......ILLINOIS........

CITY           SKY/WX    TMP DP  RH WIND       PRES   REMARKS
QUINCY         LGT RAIN  66  63  90 S8        29.92F
CHICAGO        CLOUDY    67  64  90 E8        29.79F




USA.gov is the U.S. government's official web portal to all federal, state and local government web resources and services.